Погода в Полтавке

Погода в Полтавке : погода сейчас, прогноз погоды и архив. Всё, что Вы хотите узнать о погоде в Полтавке!

Хотите узнать прогноз погоды в Полтавке? Тогда Вам сюда: Погода в Полтавке

Поиск расширенной информации на нашем сайте:

Другие новости

Новости СМИ2

Главная страница сайта

Новости сайта

03.07.2017

Напоминаем, что на нашем специализированном сайте Метеоцентр.Азия вы можете получить высокодетализированные автоматические прогнозы погоды по пунктам России, СНГ и мира в авиационном формате (включающие направление и скорость ветра, видимость, явления погоды, количество и форму облачности, нижнюю и верхнюю границу облачности).


Погода в Полтавке - сегодня

Время (UTC), дата Ветер
(°,м/с) 
Видим.   Явления Облачность Т
(°С)
Тd
(°С)
f(%) Тe
(°С)
Pmin
(гПа)
dP
(гПа)
Po
(мм)
O2
(г/м3)
Тmin Tmax R s Состояние
почвы
18 19.02.18 230 (ЮЗ) 10 км    ясно 
-13.7 -15.4 87 -17  1037.7  -0.6  766  326           
21 19.02.18 230 (ЮЗ) 10 км    ясно 
-15.2 -17.2 85 -17  1036.7  -1.1  765  328           
00 20.02.18 180 (Ю) 10 км    ясно 
-20 -21.9 85 -23  1036.3  -0.7  764  334           
03 20.02.18 170 (Ю) 20000 м    8/0 верхняя 
[Ci sp]
-19 -21.1 83 -19  1034.9  -1.2  763  332  -21.7      27  равномерный
сухой снег
100% 
06 20.02.18 160 (Ю) 20000 м    8/0 средняя, верхняя 
[Ac trans|Ci sp]
-14.8 -18.3 75 -18  1033.4  -1.3  762  326           
09 20.02.18 160 (Ю) 20000 м    4/0 верхняя 
[Ci sp]
-12.2 -15.8 75 -16  1031  -2.2  761  322           
12 20.02.18 140 (ЮВ) 20000 м    10/0 средняя, верхняя 
[Ac und|Ci sp]
-14.3 -17.2 79 -18  1029.5  -1.6  760  324           
15 20.02.18 160 (Ю) 10 км    10/0 средняя, верхняя 
[Ac und|Ci sp]
-14.4 -16.7 83 -18  1027.9  -1.5  758  324    -12       
18 20.02.18 150 (ЮВ) 10 км    8/0 верхняя 
[Ci sp]
-14.5 -16.9 82 -19  1025.5  -2.3  757  323           
21 20.02.18 140 (ЮВ) 10 км    8/0 верхняя 
[Ci sp]
-16.1 -18.6 81 -20  1024  -1.7  755  325           
00 21.02.18 130 (ЮВ) 10 км    8/0 верхняя 
[Ci sp]
-15.3 -18.4 77 -19  1021.4  -2.4  754  323           
03 21.02.18 140 (ЮВ) 20000 м  позёмок  10/0 средняя 
[Ac As]
-11.6 -16.1 69 -17  1018  -3.1  751  318  -16.5      26  равномерный
сухой снег
100% 
06 21.02.18 160 (Ю) 20000 м  позёмок  10/0 средняя, верхняя 
[Ac und|Ci sp]
-10.1 -13.5 76 -15  1016.6  -1.3  750  315           
09 21.02.18 150 (ЮВ) 20000 м  позёмок  10/6 300 м средняя 
[St|As trans]
-9.6 -12.7 78 -15  1013.4  -3.1  748  314           
18 21.02.18 270 (З) 10 км  позёмок  10/0 средняя 
[Ac und]
-8.5 -10.6 85 -13  1010.5  0.4  746  311           
21 21.02.18 280 (З) 10 км    3/0 средняя 
[Ac trans]
-13.8 -15.6 86 -18  1013.3  2.5  748  319           
03 22.02.18 270 (З) 20000 м  {снег}  ясно 
-15 -16.9 85 -21  1019.2  2.7  752  322  -15.9    0.0  26  равномерный
сухой снег
100% 
06 22.02.18 250 (З) 20000 м  {снег}  ясно 
-12.7 -15.9 77 -17  1020.9  1.8  753  320           
09 22.02.18 250 (З) 20000 м    ясно 
-10 -13.7 74 -13  1020.6  -0.1  753  316           
12 22.02.18 170 (Ю) 3{10}  20000 м    3/0 средняя 
[Ac trans]
-9.5 -12.5 79 -12  1020.9  0.2  753  316           
18 22.02.18 260 (З) 4{10}  10 км    10/0 средняя 
[Ac As]
-11.3 -14 80 -15  1020.7  0.4  753  318           
00 23.02.18 270 (З) 4{10}  10 км  {снег}  ясно 
-14.8 -16.8 85 -19  1021.9  0.7  754  323           
03 23.02.18 280 (З) 20000 м    4/0 верхняя 
[Ci fib]
-17.3 -19.1 86 -20  1023  0.9  755  326  -17.9    0.0  26  равномерный
сухой снег
100% 
06 23.02.18 260 (З) 20000 м    4/0 верхняя 
[Ci fib]
-15.5 -18.2 80 -19  1023.1  0.2  755  324           
09 23.02.18 230 (ЮЗ) 20000 м    6/0 верхняя 
[Ci fib]
-13.1 -16.6 75 -15  1022.9  755  321           
Время (UTC), дата Ветер
(°,м/с) 
Видим.   Явления Облачность Т
(°С)
Тd
(°С)
f(%) Тe
(°С)
Pmin
(гПа)
dP
(гПа)
Po
(мм)
O2
(г/м3)
Тmin Tmax R s Состояние
почвы

Для получения пояснительной информации подведите курсор к названию столбца.

ПОГОДА в Полтавке - архив

Всё, что Вы хотите узнать о погоде в Полтавке - удобно и подробно!

Выберите нужную дату (начиная с 1 января 2015* года) и нажмите кнопку "Найти".
Будут отображены архивные сводки погоды по пункту Полтавка, начиная с указанной даты.


Отображать данные в формате CSV (для использования в таблицах Excel)


Внимание! Наш архив погоды предназначен исключительно для личного некоммерческого использования в познавательных целях. Если Вам необходимы официальные справки о состоянии погоды (для производственных, юридических, коммерческих и т.п. целей), обращайтесь в органы Росгидромета.

*Примечание: данная дата относится к архиву по метеостанциям СССР (Россия, СНГ, Балтия).
Архив по метеостанциям Зарубежной Европы и Азии (кроме Китая) хранится 10 дней, по другим регионам земного шара (Китай, Африка, Америка, Австралия, Океания) - 1 день.

Полтавка - район местоположения метеостанции


Название, широта, долгота, высота метеостанции:
Полтавка 54.4°ш. 71.8°д. 125 м над ур. моря [Российская Федерация]

Дополнительная информация

В oтличие oт бoльшинства пoгoдных сайтoв мы публикуем пoдрoбную метеoинфoрмацию в детальнoм прoфессиoнальнoм фoрмате.

Характеристики температуры и влажнoсти вoздуха измеряются на высoте 2 м в тени вдали oт зданий и деревьев.
Скoрoсть ветра измеряется на высoте 10 м (на урoвне рoста челoвека скoрoсть ветра ниже в 1.5-2 раза). Если метеoстанция нахoдится в гoрoде или в лесу, тo скoрoсть ветра занижена на 2-4 м/с пo сравнению с oткрытым местoм. Скoрoсть ветра над акватoриями крупных рек и oзёр, а также на вершинах хoлмoв на 2-5 м/с выше, чем в oбычных услoвиях.
Атмoсфернoе давление в разных тoчках местнoсти мoжет значительнo oтличаться oт давления на метеoстанции, в зависимoсти oт услoвий рельефа (при пoдъёме на 10 м давление пoнижается примернo на 1 мм рт.ст.).